Los Angeles, CA

4:11 PM PST on February 07, 2016 (GMT -0800)
Los Angeles Downtown

Weather History for KCQT - September, 2012

Change the Weather History Date:

Friday, September 14, 2012

  Actual Average Record
Temperature  
Mean Temperature 84 °F 74 °F  
Max Temperature 100 °F 84 °F 100 °F (2012)
Min Temperature 67 °F 63 °F 48 °F (1898)
Degree Days  
Heating Degree Days 0 0  
Month to date heating degree days 0 0  
Since 1 July heating degree days 0 0  
Cooling Degree Days 19 8  
Month to date cooling degree days 170 125  
Year to date cooling degree days 902 959  
Growing Degree Days 32 (Base 50)    
Moisture  
Dew Point 56 °F    
Average Humidity 52    
Maximum Humidity 87    
Minimum Humidity 16    
Precipitation  
Precipitation 0.00 in 0.01 in 0.04 in (1918)
Month to date precipitation T 0.05  
Year to date precipitation 4.94 10.71  
Since 1 July precipitation 0.01  
Sea Level Pressure  
Sea Level Pressure 29.93 in    
Wind  
Wind Speed 1 mph (North)    
Max Wind Speed 3 mph    
Max Gust Speed 5 mph    
Visibility 10 miles    
Events      
T = Trace of Precipitation, MM = Missing Value Source: NWS Daily Summary

Daily Weather History Graph

Daily Weather History Graph

Search for Another Location

Airport or City:

Trip Planner

Search our weather history database for the weather conditions in past years. The results will help you decide how hot, cold, wet, or windy it might be!

Date:

Astronomy

Sep. 14, 2012 Rise Set
Actual Time 6:35 AM PDT 7:00 PM PDT
Civil Twilight 6:10 AM PDT 7:25 PM PDT
Nautical Twilight 5:41 AM PDT 7:54 PM PDT
Astronomical Twilight 5:11 AM PDT 8:24 PM PDT
Moon 5:07 AM PDT (9/14) 5:59 PM PDT (9/14)
Length of Visible Light 13h 14m
Length of Day
12h 24m
Waning Crescent, 2% of the Moon is Illuminated
Sep 14
Waning Crescent
Sep 15
New
Sep 22
First Quarter
Sep 29
Full
Oct 8
Last Quarter

Hourly Weather History & Observations

Time (PDT) Temp. Heat Index Dew Point Humidity Pressure Visibility Wind Dir Wind Speed Gust Speed Precip Events Conditions
12:47 AM 71.1 °F - 63.0 °F 75% 29.96 in 10.0 mi Calm Calm - N/A   Clear
1:47 AM 70.0 °F - 63.0 °F 78% 29.95 in 10.0 mi Calm Calm - N/A   Clear
2:47 AM 69.1 °F - 64.0 °F 84% 29.94 in 10.0 mi Calm Calm - N/A   Clear
3:47 AM 68.0 °F - 63.0 °F 84% 29.94 in 10.0 mi Calm Calm - N/A   Clear
4:47 AM 68.0 °F - 62.1 °F 81% 29.94 in 10.0 mi Calm Calm - N/A   Clear
5:47 AM 66.9 °F - 62.1 °F 84% 29.95 in 10.0 mi Calm Calm - N/A   Clear
6:47 AM 66.9 °F - 62.1 °F 84% 29.96 in 10.0 mi Calm Calm - N/A   Clear
7:47 AM 72.0 °F - 63.0 °F 73% 29.97 in 10.0 mi Calm Calm - N/A   Clear
8:47 AM 77.0 °F - 63.0 °F 62% 29.97 in 9.0 mi Calm Calm - N/A   Clear
9:47 AM 86.0 °F 85.4 °F 59.0 °F 40% 29.97 in 10.0 mi Calm Calm - N/A   Clear
10:47 AM 93.9 °F 91.7 °F 54.0 °F 26% 29.96 in 10.0 mi Calm Calm - N/A   Clear
11:47 AM 99.0 °F - 48.9 °F 18% 29.95 in 10.0 mi Calm Calm - N/A   Clear
12:47 PM 99.0 °F 96.9 °F 54.0 °F 22% 29.94 in - Variable 4.6 mph - N/A   Unknown
1:47 PM - - - N/A% - - North - - N/A   Unknown
2:47 PM 96.1 °F - 52.0 °F 22% 29.91 in - Variable 5.8 mph - N/A   Unknown
3:47 PM 97.0 °F - 45.0 °F 17% 29.89 in - Variable 5.8 mph - N/A   Unknown
4:47 PM 96.1 °F - 42.1 °F 15% 29.88 in - Variable 4.6 mph - N/A   Unknown
5:47 PM 93.9 °F - 45.0 °F 18% 29.87 in - Variable 4.6 mph - N/A   Unknown
6:47 PM 89.1 °F - 48.0 °F 24% 29.88 in - Calm Calm - N/A   Unknown
7:47 PM 86.0 °F - 51.1 °F 30% 29.88 in 10.0 mi Calm Calm - N/A   Unknown
8:47 PM 84.0 °F 82.5 °F 53.1 °F 34% 29.90 in 10.0 mi Calm Calm - N/A   Clear
9:47 PM 82.9 °F 81.9 °F 54.0 °F 37% 29.91 in 10.0 mi Calm Calm - N/A   Clear
10:47 PM 81.0 °F 80.8 °F 55.9 °F 42% 29.92 in 10.0 mi Calm Calm - N/A   Clear
11:47 PM 80.1 °F 80.2 °F 55.9 °F 43% 29.93 in 10.0 mi Calm Calm - N/A   Clear